[[{"header":{"parameterUnit":"m.s-1","parameterCategory":1,"la1":30.2991,"la2":30.254,"lo1":-89.0895,"lo2":-89.0444,"dy":0.0017,"dx":0.0017,"nx":28,"ny":28,"refTime":"2024-05-20T09:00:00:Z","depth":0,"parameterNumber":2,"parameterNumberName":"U-component_of_WINDS"},"data":[0,0,0,0,0,0,0,0,0,0,0,0,0,0,0,0,0,0,0,0,0,0,0,0,0,0,0,0,0,0,0,0,0,0,0,0,0,0,0,0,0,0,0,0,0,0,0,0,0,0,0,0,0,0,0,0,0,0,-2.6818,-2.6818,0,-2.6835,-2.6836,-2.6836,-2.6812,-2.6811,-2.681,-2.6809,-2.683,-2.6831,-2.6833,0,0,0,0,0,0,0,0,0,0,0,0,0,-2.6768,-2.6769,-2.6818,-2.6818,-2.6819,-2.6835,-2.6836,-2.6836,-2.6812,-2.6811,-2.681,-2.6809,-2.6829,-2.6831,-2.6833,0,0,0,0,0,0,0,0,0,0,0,0,0,-2.6788,-2.677,-2.6818,-2.6809,-2.6808,-2.6835,-2.6836,-2.6836,-2.6812,-2.6811,-2.681,-2.6808,-2.6829,-2.6831,-2.6833,-2.6871,0,0,-2.6839,-2.684,0,0,0,0,0,0,0,0,-2.6787,-2.679,-2.681,-2.6809,-2.6809,-2.682,-2.6826,-2.6848,-2.6813,-2.6811,-2.6809,-2.6808,-2.6828,-2.683,-2.6836,-2.6872,-2.6873,-2.6839,-2.6841,-2.6841,-2.6842,0,0,0,0,0,0,0,-2.6786,-2.6789,-2.6825,-2.681,-2.6809,-2.6805,-2.6806,-2.683,-2.6826,-2.6811,-2.6809,-2.6811,-2.6827,-2.6834,-2.6836,-2.6874,-2.6839,-2.6841,-2.6842,-2.6843,-2.6944,-2.6946,0,0,0,0,0,0,-2.6785,-2.6788,-2.6825,-2.6826,-2.6794,-2.6807,-2.6808,-2.6818,-2.6826,-2.6826,-2.6812,-2.681,-2.6831,-2.6834,-2.6837,-2.6883,-2.6841,-2.6843,-2.6844,-2.6943,-2.6945,-2.6946,0,0,0,0,0,0,-2.6784,-2.6789,-2.6824,-2.6807,-2.6811,-2.6809,-2.682,-2.6819,-2.6825,-2.6827,-2.6827,-2.682,-2.683,-2.6834,-2.6863,-2.6884,-2.6844,-2.6846,-2.6941,-2.6943,-2.6945,-2.6975,0,0,0,0,0,0,-2.6783,-2.6788,-2.6802,-2.6807,-2.6812,-2.6848,-2.6821,-2.682,-2.6829,-2.6826,-2.6834,-2.6834,-2.683,-2.686,-2.6865,-2.6886,-2.6848,-2.6939,-2.6942,-2.6945,-2.6973,-2.6978,-2.6983,0,0,0,0,0,-2.6781,-2.681,-2.6803,-2.6807,-2.6828,-2.6849,-2.6852,-2.6846,-2.683,-2.6845,-2.6846,-2.6834,-2.6881,-2.6864,-2.6869,-2.689,-2.6938,-2.6941,-2.6945,-2.697,-2.6977,-2.6983,0,0,0,0,0,0,-2.6807,-2.681,-2.6802,-2.6833,-2.6841,-2.6845,-2.6863,-2.6853,-2.6866,-2.6863,-2.6856,-2.6858,-2.6889,-2.6893,-2.6873,-2.6929,-2.6907,-2.6912,-2.6925,-2.6931,-2.6937,-2.6935,-2.6849,0,0,0,0,0,-2.6817,-2.6833,-2.6835,-2.6862,-2.6867,-2.6864,-2.6873,-2.6868,-2.6876,-2.688,-2.6883,-2.6893,-2.691,-2.6921,-2.6937,-2.6974,-2.6976,-2.6991,-2.6997,-2.7001,-2.7005,-2.7026,-2.7033,-2.6957,-2.6957,-2.6957,0,0,-2.6836,-2.684,-2.685,-2.6868,-2.6873,-2.6891,-2.6867,-2.6887,-2.69,-2.6883,-2.691,-2.6914,-2.6924,-2.6957,-2.6972,-2.6962,-2.7027,-2.7005,-2.7009,-2.701,-2.703,-2.7037,-2.7043,-2.6959,-2.6959,-2.6959,0,0,-2.6881,-2.6885,-2.6908,-2.6914,-2.6923,-2.6922,-2.6928,-2.6934,-2.6935,-2.6962,-2.695,-2.6967,-2.6997,-2.7005,-2.7013,-2.7063,-2.7053,-2.7069,-2.7096,-2.7117,-2.7123,-2.7128,-2.7146,-2.7153,-2.7073,-2.7073,-2.7073,0,-2.6904,-2.6929,-2.6922,-2.6942,-2.6951,-2.6936,-2.696,-2.6967,-2.6981,-2.6988,-2.6976,-2.7013,-2.702,-2.7055,-2.7067,-2.7075,-2.7082,-2.7067,-2.7123,-2.7128,-2.7133,-2.715,-2.7157,-2.7075,-2.7075,-2.7074,-2.7074,0,-2.6957,-2.6975,-2.6993,-2.7006,-2.7017,-2.704,-2.7037,-2.705,-2.7044,-2.7045,-2.7074,-2.7081,-2.7099,-2.7107,-2.7102,-2.7143,-2.7136,-2.7123,-2.7101,-2.7142,-2.7158,-2.7164,-2.7078,-2.7077,-2.7076,-2.7076,0,0,-2.7016,-2.7026,-2.7033,-2.7039,-2.7049,-2.7063,-2.7087,-2.7103,-2.7114,-2.7125,-2.7145,-2.7171,-2.716,-2.717,-2.7166,-2.7184,-2.7224,-2.717,-2.717,-2.7179,-2.7271,-2.7279,-2.7287,-2.7218,-2.722,-2.7221,-2.727,0,-2.706,-2.7098,-2.7093,-2.713,-2.7148,-2.7135,-2.7156,-2.7165,-2.7167,-2.7183,-2.7186,-2.7205,-2.7189,-2.7194,-2.7212,-2.7216,-2.7242,-2.7212,-2.7237,-2.7238,-2.7234,-2.7295,-2.7304,-2.7349,-2.7276,-2.7277,-2.7278,0,-2.7116,-2.7128,-2.7167,-2.7175,-2.7182,-2.72,-2.7216,-2.7231,-2.7243,-2.7243,-2.7254,-2.7248,-2.7273,-2.7252,-2.7287,-2.7267,-2.7277,-2.7281,-2.7283,-2.7284,-2.7259,-2.7297,-2.7364,-2.737,-2.7288,-2.7287,-2.7286,0,-2.7154,-2.7181,-2.7208,-2.7214,-2.7225,-2.7238,-2.7243,-2.7253,-2.7264,-2.7278,-2.7285,-2.7303,-2.7313,-2.7328,-2.7327,-2.7311,-2.7363,-2.7341,-2.7365,-2.7365,-2.7375,-2.7374,-2.7443,-2.7383,-2.7383,-2.7383,-2.7383,0,-2.7203,-2.7227,-2.7226,-2.7242,-2.7269,-2.7265,-2.7293,-2.7297,-2.7306,-2.7324,-2.7316,-2.7334,-2.7332,-2.7351,-2.7351,-2.738,-2.7385,-2.7387,-2.7386,-2.7387,-2.7387,-2.7393,-2.7389,-2.7385,-2.7385,-2.7384,-2.7384,0,-2.725,-2.725,-2.7278,-2.7286,-2.7289,-2.7309,-2.7317,-2.7333,-2.7336,-2.7359,-2.7364,-2.7368,-2.7389,-2.7391,-2.7416,-2.7416,-2.7452,-2.7449,-2.7448,-2.7447,-2.747,-2.7467,-2.7544,-2.7555,-2.7489,-2.749,-2.749,0,-2.7281,-2.7299,-2.7309,-2.732,-2.7326,-2.7345,-2.7356,-2.7353,-2.7365,-2.7381,-2.7396,-2.7416,-2.7432,-2.7468,-2.7474,-2.7493,-2.749,-2.7516,-2.7493,-2.7493,-2.749,-2.7489,-2.7491,-2.752,-2.752,-2.7521,-2.7521,0,-2.7335,-2.7334,-2.735,-2.7366,-2.7379,-2.7392,-2.7404,-2.7414,-2.7414,-2.7429,-2.745,-2.7462,-2.7488,-2.7509,-2.7529,-2.7536,-2.7529,-2.7529,-2.7535,-2.7536,-2.7534,-2.7535,-2.7459,-2.7527,-2.7526,-2.7526,-2.7526,-2.7525,-2.7375,-2.739,-2.74,-2.7419,-2.7428,-2.7439,-2.7455,-2.746,-2.7477,-2.7497,-2.7496,-2.752,-2.7533,-2.7558,-2.7568,-2.7588,-2.7579,-2.7588,-2.759,-2.7592,-2.7595,-2.7532,-2.7591,-2.7591,-2.7591,-2.7591,-2.7591,0,-2.7428,-2.7434,-2.7451,-2.7468,-2.7483,-2.7475,-2.7489,-2.7502,-2.7523,-2.7535,-2.7551,-2.7577,-2.7598,-2.7606,-2.7627,-2.7642,-2.7639,-2.7647,-2.7646,-2.7648,-2.7601,-2.7593,-2.7649,-2.7649,-2.7649,-2.7649,-2.7649,-2.7649,-2.7458,-2.7484,-2.7485,-2.7517,-2.7524,-2.7546,-2.7555,-2.7567,-2.7576,-2.7605,-2.7622,-2.7627,-2.7639,-2.7661,-2.768,-2.7682,-2.769,-2.77,-2.7701,-2.7657,-2.7651,-2.7645,-2.7638,-2.7702,-2.7702,-2.7745,-2.7746,-2.7746]},{"header":{"parameterUnit":"m.s-1","parameterCategory":1,"la1":30.2991,"la2":30.254,"lo1":-89.0895,"lo2":-89.0444,"dy":0.0017,"dx":0.0017,"nx":28,"ny":28,"refTime":"2024-05-20T09:00:00:Z","depth":0,"parameterNumber":3,"parameterNumberName":"V-component_of_WINDS"},"data":[0,0,0,0,0,0,0,0,0,0,0,0,0,0,0,0,0,0,0,0,0,0,0,0,0,0,0,0,0,0,0,0,0,0,0,0,0,0,0,0,0,0,0,0,0,0,0,0,0,0,0,0,0,0,0,0,0,0,2.8219,2.8219,0,2.8228,2.8228,2.8228,2.8297,2.8299,2.83,2.8302,2.8307,2.8306,2.8305,0,0,0,0,0,0,0,0,0,0,0,0,0,2.8258,2.8257,2.8219,2.8219,2.8219,2.8228,2.8228,2.8228,2.8297,2.8299,2.8301,2.8303,2.8308,2.8306,2.8304,0,0,0,0,0,0,0,0,0,0,0,0,0,2.8251,2.8257,2.8219,2.8254,2.8258,2.8228,2.8228,2.8228,2.8296,2.8299,2.8301,2.8304,2.8308,2.8306,2.8304,2.824,0,0,2.8298,2.8297,0,0,0,0,0,0,0,0,2.8252,2.825,2.8249,2.8252,2.8256,2.8264,2.8244,2.8232,2.8295,2.8281,2.8302,2.8305,2.8291,2.829,2.8286,2.824,2.8241,2.8297,2.8296,2.8295,2.8295,0,0,0,0,0,0,0,2.8252,2.825,2.8223,2.8249,2.8253,2.8269,2.8271,2.8242,2.8271,2.8283,2.8288,2.8288,2.8293,2.8288,2.8287,2.8241,2.8297,2.8296,2.8294,2.8293,2.8143,2.8141,0,0,0,0,0,0,2.8248,2.825,2.8222,2.8223,2.826,2.8266,2.8268,2.8259,2.8272,2.8277,2.8286,2.8291,2.829,2.8289,2.8287,2.8214,2.8295,2.8293,2.8292,2.8146,2.8143,2.814,0,0,0,0,0,0,2.8249,2.8245,2.8222,2.8238,2.8236,2.8263,2.8251,2.8258,2.8253,2.8275,2.828,2.8276,2.8292,2.829,2.8252,2.8215,2.8292,2.829,2.8149,2.8145,2.8141,2.8065,0,0,0,0,0,0,2.8249,2.8245,2.8221,2.8237,2.8235,2.8187,2.8249,2.8256,2.8249,2.8256,2.8266,2.827,2.8294,2.8255,2.825,2.8213,2.8289,2.8153,2.8147,2.8143,2.8071,2.8059,2.8049,0,0,0,0,0,2.8251,2.8198,2.822,2.8216,2.8206,2.8185,2.8183,2.8213,2.8246,2.8222,2.8237,2.827,2.822,2.825,2.8245,2.8207,2.8155,2.8149,2.8143,2.8076,2.8061,2.8049,0,0,0,0,0,0,2.8176,2.8201,2.8225,2.8176,2.8178,2.8196,2.8167,2.8196,2.8188,2.8194,2.823,2.8232,2.8188,2.8194,2.8227,2.8146,2.8193,2.8186,2.8144,2.813,2.8119,2.8119,2.8287,0,0,0,0,0,2.8154,2.8136,2.8158,2.8113,2.8113,2.814,2.8131,2.8154,2.8157,2.8157,2.8169,2.8169,2.8154,2.8142,2.8129,2.8073,2.8076,2.8044,2.8033,2.8024,2.8017,2.7988,2.7974,2.812,2.812,2.812,0,0,2.8109,2.812,2.8106,2.8098,2.8102,2.8082,2.814,2.8115,2.81,2.8153,2.8118,2.8126,2.8129,2.8082,2.8061,2.8085,2.7977,2.8016,2.8008,2.8007,2.798,2.7966,2.7954,2.8116,2.8117,2.8117,0,0,2.8015,2.8022,2.7985,2.7989,2.7994,2.8013,2.8004,2.8018,2.8026,2.7992,2.8032,2.8013,2.7986,2.7986,2.7983,2.789,2.7921,2.7885,2.7826,2.7797,2.7786,2.7776,2.7743,2.7731,2.7878,2.7878,2.7878,0,2.7957,2.7928,2.7962,2.7936,2.7931,2.798,2.7944,2.7945,2.7945,2.7941,2.7968,2.7935,2.794,2.7893,2.7871,2.7867,2.7857,2.7884,2.7785,2.7775,2.7766,2.7735,2.7723,2.7873,2.7874,2.7874,2.7875,0,2.7857,2.7836,2.7806,2.7807,2.7799,2.7767,2.7796,2.7784,2.7808,2.7823,2.7787,2.7795,2.7785,2.7776,2.7798,2.7732,2.7747,2.7779,2.7827,2.7747,2.7719,2.7707,2.7867,2.7869,2.787,2.7871,0,0,2.7716,2.7737,2.7726,2.7727,2.7738,2.7722,2.7692,2.7683,2.7672,2.7671,2.7647,2.7623,2.7653,2.7649,2.7671,2.7646,2.7573,2.7681,2.7682,2.7661,2.7501,2.7477,2.7462,2.7593,2.7591,2.7589,2.7501,0,2.7626,2.7578,2.7608,2.7555,2.7536,2.7583,2.7557,2.756,2.7574,2.7559,2.7574,2.7556,2.7597,2.7595,2.7572,2.7586,2.7541,2.7593,2.757,2.7569,2.7568,2.7448,2.7422,2.7338,2.749,2.7488,2.7487,0,2.7515,2.7511,2.7455,2.7471,2.7464,2.744,2.7435,2.7421,2.7425,2.7437,2.7433,2.7462,2.7433,2.7481,2.7441,2.7476,2.7469,2.7474,2.7472,2.747,2.7523,2.7443,2.7312,2.7299,2.7469,2.7471,2.7472,0,2.7418,2.7398,2.7363,2.7363,2.7379,2.7361,2.7367,2.7374,2.7367,2.7362,2.7358,2.7349,2.7344,2.7336,2.7362,2.7394,2.7319,2.7369,2.7327,2.7326,2.7309,2.731,2.7174,2.7304,2.7304,2.7304,2.7305,0,2.7314,2.7279,2.732,2.7298,2.726,2.7294,2.7255,2.7266,2.7272,2.7252,2.7292,2.7273,2.7308,2.7292,2.7312,2.7276,2.7274,2.7282,2.7287,2.7278,2.7277,2.7273,2.728,2.7301,2.7302,2.7303,2.7303,0,2.7199,2.7225,2.719,2.7209,2.7213,2.7184,2.72,2.718,2.7197,2.7172,2.7168,2.7193,2.7177,2.7202,2.7187,2.7201,2.7152,2.7166,2.715,2.7155,2.7112,2.7116,2.6969,2.6952,2.7093,2.7091,2.709,0,2.7131,2.7106,2.7122,2.7113,2.7117,2.7101,2.7095,2.7128,2.7119,2.7123,2.7102,2.7089,2.7081,2.7052,2.7068,2.7058,2.7072,2.7022,2.7071,2.7062,2.7071,2.7073,2.707,2.7012,2.701,2.7008,2.7007,0,2.7009,2.7023,2.7013,2.7007,2.6999,2.6995,2.6995,2.6985,2.702,2.7008,2.6992,2.6986,2.6972,2.6958,2.6952,2.6957,2.6987,2.6992,2.6982,2.6972,2.6964,2.6968,2.7123,2.6995,2.6996,2.6997,2.6998,2.6998,2.6915,2.6895,2.6904,2.6891,2.6894,2.6893,2.6876,2.6891,2.6879,2.6871,2.6891,2.6871,2.6876,2.6871,2.6873,2.6857,2.6879,2.6864,2.686,2.6856,2.6849,2.6967,2.6855,2.6856,2.6856,2.6857,2.6857,0,2.6795,2.6803,2.6791,2.679,2.678,2.6811,2.6812,2.6801,2.6783,2.6786,2.6778,2.6759,2.6747,2.6763,2.6752,2.6736,2.675,2.6732,2.6734,2.6734,2.683,2.684,2.6722,2.6722,2.6722,2.6722,2.6722,2.6722,2.6731,2.6698,2.6713,2.6682,2.669,2.6672,2.667,2.6668,2.6671,2.665,2.664,2.6651,2.6659,2.665,2.6639,2.6644,2.6638,2.6616,2.6625,2.6714,2.6728,2.674,2.675,2.6614,2.6614,2.6531,2.6531,2.653]}]]